Shreveport, LA

10:01 PM CST on December 02, 2016 (GMT -0600)
Shreveport Downtown

Weather History for KDTN - October, 2012

Change the Weather History Date:

Sunday, October 28, 2012

  Actual Average (KSHV) Record (KSHV)
Temperature  
Mean Temperature 50 °F 63 °F  
Max Temperature 61 °F 74 °F 87 °F (1991)
Min Temperature 39 °F 51 °F 31 °F (1957)
Degree Days  
Heating Degree Days 16 5  
Month to date heating degree days 66  
Since 1 July heating degree days 72  
Cooling Degree Days 0 2  
Month to date cooling degree days 119  
Year to date cooling degree days 2444  
Moisture  
Dew Point 35 °F    
Average Humidity 66    
Maximum Humidity 92    
Minimum Humidity 33    
Precipitation  
Precipitation 0.00 in 0.16 in 2.41 in (1974)
Month to date precipitation 4.46  
Year to date precipitation 41.61  
Snow  
Snow 0.00 in - - ()
Month to date snowfall  
Since 1 July snowfall  
Since 1 September snowfall  
Snow Depth -    
Sea Level Pressure  
Sea Level Pressure 30.21 in    
Wind  
Wind Speed 4 mph (NNW)    
Max Wind Speed 10 mph    
Max Gust Speed 17 mph    
Visibility 10 miles    
Events      
T = Trace of Precipitation, MM = Missing Value Source: NWS Daily Summary

Daily Weather History Graph

Daily Weather History Graph

Search for Another Location

Airport or City:

Trip Planner

Search our weather history database for the weather conditions in past years. The results will help you decide how hot, cold, wet, or windy it might be!

Date:

Astronomy

Oct. 28, 2012 Rise Set
Actual Time 7:29 AM CDT 6:27 PM CDT
Civil Twilight 7:04 AM CDT 6:52 PM CDT
Nautical Twilight 6:35 AM CDT 7:21 PM CDT
Astronomical Twilight 6:06 AM CDT 7:50 PM CDT
Moon 5:45 PM CDT (10/28) 6:24 AM CDT (10/28)
Length of Visible Light 11h 48m
Length of Day
10h 58m
Waxing Gibbous, 99% of the Moon is Illuminated
Oct 28
Waxing Gibbous
Oct 29
Full
Nov 6
Last Quarter
Nov 13
New
Nov 20
First Quarter

Hourly Weather History & Observations

Time (CDT) Temp. Windchill Dew Point Humidity Pressure Visibility Wind Dir Wind Speed Gust Speed Precip Events Conditions
12:53 AM 43.0 °F 40.3 °F 37.0 °F 80% 30.19 in 10.0 mi NNW 4.6 mph - N/A   Clear
1:53 AM 43.0 °F 40.3 °F 37.0 °F 80% 30.19 in 10.0 mi NNW 4.6 mph - N/A   Clear
2:53 AM 42.1 °F 40.2 °F 36.0 °F 79% 30.19 in 10.0 mi NNW 3.5 mph - N/A   Clear
3:53 AM 41.0 °F 38.0 °F 36.0 °F 82% 30.19 in 10.0 mi NNW 4.6 mph - N/A   Clear
4:53 AM 39.9 °F 36.7 °F 35.1 °F 83% 30.19 in 10.0 mi NNW 4.6 mph - N/A   Clear
5:53 AM 39.0 °F - 35.1 °F 86% 30.20 in 10.0 mi Calm Calm - N/A   Clear
6:53 AM 39.9 °F 36.7 °F 34.0 °F 79% 30.22 in 10.0 mi North 4.6 mph - N/A   Clear
7:53 AM 39.9 °F - 34.0 °F 79% 30.24 in 10.0 mi Calm Calm - N/A   Clear
8:53 AM 44.1 °F 42.5 °F 36.0 °F 73% 30.26 in 10.0 mi North 3.5 mph - N/A   Clear
9:53 AM 48.0 °F - 35.1 °F 61% 30.27 in 10.0 mi NNE 6.9 mph - N/A   Clear
10:53 AM 50.0 °F - 36.0 °F 59% 30.26 in 10.0 mi North 6.9 mph - N/A   Clear
12:53 PM 55.9 °F - 34.0 °F 44% 30.25 in 10.0 mi NW 10.4 mph - N/A   Clear
1:53 PM 57.0 °F - 32.0 °F 39% 30.22 in 10.0 mi NNW 10.4 mph 17.3 mph N/A   Clear
2:53 PM 59.0 °F - 30.0 °F 33% 30.20 in 10.0 mi North 8.1 mph - N/A   Clear
3:53 PM 60.1 °F - 30.9 °F 33% 30.19 in 10.0 mi North 8.1 mph 17.3 mph N/A   Clear
4:53 PM 60.1 °F - 30.9 °F 33% 30.18 in 10.0 mi Variable 5.8 mph - N/A   Clear
5:53 PM 57.9 °F - 30.9 °F 36% 30.18 in 10.0 mi North 5.8 mph - N/A   Clear
6:53 PM 54.0 °F - 34.0 °F 47% 30.19 in 10.0 mi Calm Calm - N/A   Clear
7:53 PM 46.0 °F - 39.0 °F 76% 30.20 in 10.0 mi Calm Calm - N/A   Clear
8:53 PM 46.9 °F - 41.0 °F 80% 30.21 in 10.0 mi Calm Calm - N/A   Clear
9:53 PM 45.0 °F - 39.0 °F 80% 30.22 in 10.0 mi Calm Calm - N/A   Clear
10:53 PM 42.1 °F - 39.9 °F 92% 30.23 in 10.0 mi Calm Calm - N/A   Clear
11:53 PM 42.1 °F - 39.0 °F 89% 30.23 in 10.0 mi Calm Calm - N/A   Clear